Regional Weather Roundup
Issued by NWS

Home | Current Version | Previous Version | Graphics & Text | Print | Product List | Glossary On
Versions: 1 2 3 4 5 6 7 8 9 10 11 12 13 14 15 16 17 18 19 20 21 22 23 24 25 26 27 28 29 30 31 32 33 34 35 36 37 38 39 40 41 42 43 44 45 46 47 48 49 50
000
ASUS44 KMEG 171400
RWRTN
TENNESSEE HOURLY STATE WEATHER ROUNDUP
NATIONAL WEATHER SERVICE MEMPHIS TN
800 AM CST WED DEC 17 2014

TNZ002-004-019-021-049-052-054-088>092-171500-
WEST TENNESSEE

CITY           SKY/WX    TMP DP  RH WIND       PRES   REMARKS
MEMPHIS INTL   CLOUDY    34  29  82 N7        30.32R WCI  28
NWS MEMPHIS      N/A     32 N/A N/A MISG        N/A
JACKSON        CLOUDY    37  30  75 N10       30.31R WCI  30
DYERSBURG      CLOUDY    34  18  51 NE9       30.34S WCI  26
UNION CITY     CLOUDY    32  27  80 NE6       30.31S WCI  26
PARIS          CLOUDY    30  27  86 N3        30.31S
LEXINGTON      CLOUDY    36  28  75 N5        30.29S WCI  32
SAVANNAH       CLOUDY    39  32  75 N3        30.29S
$$

TNZ008-025-027-028-033-062-065-066-171500-
NORTH MIDDLE TENNESSEE

CITY           SKY/WX    TMP DP  RH WIND       PRES   REMARKS
NASHVILLE      CLOUDY    37  31  78 NW9       30.31R WCI  30
CLARKSVILLE    CLOUDY    34  28  79 N8        30.32R WCI  27
COOKEVILLE     CLOUDY    37  36  93 CALM      30.25R
CROSSVILLE     CLOUDY    37  32  82 NW9       30.22R WCI  30
$$

TNZ061-075-076-078-094-096-097-171500-
SOUTH MIDDLE TENNESSEE

CITY           SKY/WX    TMP DP  RH WIND       PRES   REMARKS
FAYETTEVILLE   CLOUDY    37  34  87 MISG      30.26R
TULLAHOMA      CLOUDY    36  34  93 N6        30.26R WCI  31
WINCHESTER     CLOUDY    39  36  87 N5        30.26R
SHELBYVILLE    CLOUDY    37  34  87 N7        30.29R WCI  32
$$

TNZ017-018-042-046-047-171500-
NORTHEAST TENNESSEE

CITY           SKY/WX    TMP DP  RH WIND       PRES   REMARKS
TRI CITIES     CLOUDY    42  37  82 SW9       30.19R
ELIZABETHTON   CLOUDY    39  36  87 W6        30.18R WCI  35
$$

TNZ012-013-036-069-073-074-171500-
CENTRAL EAST TENNESSEE

CITY           SKY/WX    TMP DP  RH WIND       PRES   REMARKS
KNOXVILLE      CLOUDY    41  35  79 W6        30.23R
OAK RIDGE      CLOUDY    43  36  76 SW3       30.24R
GATLINBURG     CLOUDY    41  36  81 W3        30.22R
$$

TNZ083-085-099-171500-
SOUTHEAST TENNESSEE

CITY           SKY/WX    TMP DP  RH WIND       PRES   REMARKS
CHATTANOOGA    CLOUDY    43  36  76 N9        30.26R
$$

SKY/WX REPORTED AS FAIR MEANS FEW OR NO CLOUDS BELOW
12 THOUSAND FEET.




USA.gov is the U.S. government's official web portal to all federal, state and local government web resources and services.